TVS461F BIKF-LZIB

Flight info

Callsign TVS461F
Flight time N/A
Altitude 41000
Route OSKUM3C OSKUM DCT 62N010W DCT NALAN/N0450F410 DCT LAMRO DCT ARTEX DCT VAXIT DCT KUGAL DCT BUMIL M748 HDO DCT ODNEM/N0321F130 A4 BERVA
Aircraft B738/M-SDE3FGHIJ1RWXY/LB1

Departure

Time 2026-04-27 13:32
Airport Keflavik International Airport (BIKF)

Arrival

Time N/A
Airport M. R. Štefánik Airport (LZIB)
Time Latitude Longitude Altitude Speed Heading
2026-04-27 12:57 63.99543 -22.62462 156 ft 0 kts 90°
2026-04-27 13:21 63.99543 -22.62481 162 ft 4 kts 88°
2026-04-27 13:21 63.99540 -22.62541 162 ft 4 kts 75°
2026-04-27 13:22 63.99531 -22.62599 162 ft 4 kts 70°
2026-04-27 13:22 63.99525 -22.62652 162 ft 4 kts 113°
2026-04-27 13:22 63.99524 -22.62662 161 ft 0 kts 178°
2026-04-27 13:27 63.99512 -22.62660 164 ft 5 kts 177°
2026-04-27 13:27 63.99463 -22.62665 161 ft 10 kts 191°
2026-04-27 13:27 63.99386 -22.62731 161 ft 13 kts 204°
2026-04-27 13:27 63.99298 -22.62755 161 ft 13 kts 173°
2026-04-27 13:28 63.99217 -22.62684 160 ft 12 kts 171°
2026-04-27 13:28 63.99175 -22.62556 160 ft 12 kts 75°
2026-04-27 13:28 63.99173 -22.62367 160 ft 12 kts 93°
2026-04-27 13:28 63.99171 -22.62182 160 ft 12 kts 90°
2026-04-27 13:29 63.99171 -22.62002 161 ft 11 kts 90°
2026-04-27 13:29 63.99171 -22.61826 161 ft 11 kts 90°
2026-04-27 13:29 63.99171 -22.61656 162 ft 11 kts 90°
2026-04-27 13:29 63.99171 -22.61486 162 ft 11 kts 90°
2026-04-27 13:30 63.99172 -22.61314 163 ft 11 kts 90°
2026-04-27 13:30 63.99171 -22.61133 164 ft 11 kts 90°
2026-04-27 13:30 63.99173 -22.60951 165 ft 12 kts 89°
2026-04-27 13:30 63.99172 -22.60772 165 ft 11 kts 90°
2026-04-27 13:31 63.99163 -22.60600 166 ft 11 kts 123°
2026-04-27 13:31 63.99092 -22.60545 165 ft 12 kts 176°
2026-04-27 13:31 63.98888 -22.60544 158 ft 64 kts 180°
2026-04-27 13:31 63.98198 -22.60555 163 ft 130 kts 179°
2026-04-27 13:32 63.97253 -22.60815 744 ft 139 kts 189°
2026-04-27 13:32 63.96504 -22.61186 1876 ft 107 kts 191°
2026-04-27 13:32 63.95809 -22.61569 2692 ft 110 kts 192°
2026-04-27 13:32 63.94986 -22.61932 3166 ft 129 kts 184°
2026-04-27 13:33 63.94080 -22.60873 3459 ft 179 kts 137°
2026-04-27 13:33 63.93791 -22.57900 4111 ft 202 kts 102°
2026-04-27 13:33 63.93591 -22.54856 4832 ft 190 kts 120°
2026-04-27 13:33 63.93192 -22.51982 5545 ft 195 kts 121°
2026-04-27 13:34 63.92743 -22.48916 5968 ft 215 kts 121°
2026-04-27 13:34 63.92195 -22.45478 6021 ft 244 kts 122°
2026-04-27 13:34 63.91585 -22.41835 6013 ft 248 kts 122°
2026-04-27 13:34 63.90948 -22.38167 6023 ft 250 kts 122°
2026-04-27 13:35 63.90289 -22.34511 6023 ft 250 kts 123°
2026-04-27 13:35 63.89613 -22.30863 6042 ft 251 kts 123°
2026-04-27 13:35 63.88927 -22.27220 6010 ft 250 kts 123°
2026-04-27 13:35 63.88236 -22.23640 6020 ft 245 kts 124°
2026-04-27 13:36 63.87551 -22.20110 6038 ft 245 kts 124°
2026-04-27 13:36 63.86862 -22.16570 6040 ft 245 kts 124°
2026-04-27 13:36 63.86173 -22.13032 6036 ft 245 kts 124°
2026-04-27 13:36 63.85481 -22.09507 6036 ft 245 kts 124°
2026-04-27 13:37 63.84796 -22.06037 6035 ft 245 kts 124°
2026-04-27 13:37 63.84088 -22.02458 6036 ft 245 kts 124°
2026-04-27 13:37 63.83534 -21.98759 6053 ft 256 kts 109°
2026-04-27 13:37 63.83343 -21.94706 6055 ft 259 kts 105°
2026-04-27 13:38 63.83155 -21.90655 6015 ft 259 kts 106°
2026-04-27 13:38 63.82944 -21.86587 5990 ft 262 kts 106°
2026-04-27 13:38 63.82720 -21.82493 5972 ft 262 kts 107°
2026-04-27 13:38 63.82493 -21.78401 5956 ft 262 kts 107°
2026-04-27 13:39 63.82265 -21.74335 5952 ft 258 kts 107°
2026-04-27 13:39 63.82039 -21.70350 6142 ft 253 kts 107°
2026-04-27 13:39 63.81811 -21.66365 6406 ft 258 kts 107°
2026-04-27 13:39 63.81578 -21.62309 6669 ft 262 kts 107°
2026-04-27 13:40 63.81344 -21.58210 6908 ft 262 kts 107°
2026-04-27 13:40 63.81111 -21.54166 7081 ft 265 kts 107°
2026-04-27 13:40 63.80869 -21.50022 7077 ft 265 kts 107°
2026-04-27 13:40 63.80630 -21.45908 7046 ft 263 kts 106°
2026-04-27 13:41 63.80389 -21.41812 7071 ft 264 kts 107°
2026-04-27 13:41 63.80143 -21.37674 7080 ft 267 kts 107°
2026-04-27 13:41 63.79895 -21.33508 7146 ft 268 kts 107°
2026-04-27 13:41 63.79644 -21.29306 7841 ft 270 kts 107°
2026-04-27 13:42 63.79389 -21.25060 8630 ft 274 kts 107°
2026-04-27 13:42 63.79126 -21.20733 9232 ft 287 kts 107°
2026-04-27 13:42 63.78845 -21.16136 9489 ft 301 kts 106°
2026-04-27 13:42 63.78561 -21.11420 9758 ft 303 kts 106°
2026-04-27 13:43 63.78276 -21.06703 9820 ft 302 kts 106°
2026-04-27 13:43 63.77990 -21.02018 9821 ft 300 kts 107°
2026-04-27 13:43 63.77603 -20.97430 9843 ft 295 kts 113°
2026-04-27 13:43 63.77080 -20.92944 9843 ft 295 kts 114°
2026-04-27 13:44 63.76528 -20.88479 9877 ft 295 kts 115°
2026-04-27 13:44 63.75978 -20.84019 10164 ft 304 kts 114°
2026-04-27 13:44 63.75382 -20.79225 10414 ft 327 kts 114°
2026-04-27 13:44 63.74768 -20.74177 10992 ft 338 kts 113°
2026-04-27 13:45 63.74153 -20.69018 11767 ft 343 kts 113°
2026-04-27 13:45 63.73533 -20.63786 12567 ft 347 kts 113°
2026-04-27 13:45 63.72902 -20.58479 13347 ft 353 kts 113°
2026-04-27 13:45 63.72257 -20.53097 14062 ft 359 kts 113°
2026-04-27 13:46 63.71593 -20.47598 14708 ft 366 kts 113°
2026-04-27 13:46 63.70917 -20.42009 15438 ft 372 kts 113°
2026-04-27 13:46 63.70234 -20.36346 16179 ft 377 kts 113°
2026-04-27 13:46 63.69542 -20.30604 16902 ft 382 kts 112°
2026-04-27 13:47 63.68865 -20.25067 14530 ft 292 kts 117°
2026-04-27 13:47 63.67853 -20.20488 13547 ft 435 kts 123°
2026-04-27 13:47 63.66835 -20.14552 16033 ft 380 kts 113°
2026-04-27 13:47 63.66221 -20.09021 18149 ft 351 kts 111°
2026-04-27 13:48 63.65728 -20.03712 19196 ft 345 kts 110°
2026-04-27 13:48 63.65234 -19.98326 19503 ft 361 kts 110°
2026-04-27 13:48 63.64679 -19.92754 19635 ft 379 kts 111°
2026-04-27 13:48 63.64048 -19.86863 19753 ft 395 kts 111°
2026-04-27 13:49 63.63356 -19.80758 19998 ft 408 kts 112°
2026-04-27 13:49 63.62613 -19.74448 20487 ft 414 kts 112°